Time,TemperatureF,DewpointF,PressureIn,WindDirection,WindDirectionDegrees,WindSpeedMPH,WindSpeedGustMPH,Humidity,HourlyPrecipIn,Conditions,Clouds,dailyrainin,SoftwareType,DateUTC
2013-08-11 00:01:00,65.1,64.6,30.10,South,184,0.0,0.0,98,0.00,,,0.00,meteohub,2013-08-11 04:01:00,
2013-08-11 00:06:00,64.9,64.4,30.10,South,183,0.0,0.0,98,0.00,,,0.00,meteohub,2013-08-11 04:06:00,
2013-08-11 00:11:00,64.9,64.4,30.10,South,183,0.0,0.0,98,0.00,,,0.00,meteohub,2013-08-11 04:11:00,
2013-08-11 00:16:00,64.9,64.4,30.10,South,183,0.0,0.0,98,0.00,,,0.00,meteohub,2013-08-11 04:16:00,
2013-08-11 00:21:00,64.8,64.2,30.10,South,183,0.0,0.0,98,0.00,,,0.00,meteohub,2013-08-11 04:21:00,
2013-08-11 00:26:00,64.8,64.2,30.10,SSW,197,0.0,0.0,98,0.00,,,0.00,meteohub,2013-08-11 04:26:00,
2013-08-11 00:31:00,64.8,64.2,30.10,SSW,198,0.0,0.0,98,0.00,,,0.00,meteohub,2013-08-11 04:31:00,
2013-08-11 00:37:00,64.8,64.2,30.10,SSW,197,0.0,0.0,98,0.00,,,0.00,meteohub,2013-08-11 04:37:00,
2013-08-11 00:42:00,64.8,64.2,30.10,SSW,198,0.0,0.0,98,0.00,,,0.00,meteohub,2013-08-11 04:42:00,
2013-08-11 00:47:00,64.6,64.0,30.10,SSW,198,0.0,0.0,98,0.00,,,0.00,meteohub,2013-08-11 04:47:00,
2013-08-11 00:52:00,64.6,64.0,30.10,SSW,197,0.0,0.0,98,0.00,,,0.00,meteohub,2013-08-11 04:52:00,
2013-08-11 00:57:00,64.6,64.0,30.10,SSW,197,0.0,0.0,98,0.00,,,0.00,meteohub,2013-08-11 04:57:00,
2013-08-11 01:02:00,64.6,64.0,30.10,SSW,197,0.0,0.0,98,0.00,,,0.00,meteohub,2013-08-11 05:02:00,
2013-08-11 01:07:00,64.6,64.0,30.10,SSW,198,0.0,0.0,98,0.00,,,0.00,meteohub,2013-08-11 05:07:00,
2013-08-11 01:12:00,64.2,63.7,30.10,SSW,197,0.0,0.0,98,0.00,,,0.00,meteohub,2013-08-11 05:12:00,
2013-08-11 01:17:00,64.2,63.7,30.10,SSW,198,0.0,0.0,98,0.00,,,0.00,meteohub,2013-08-11 05:17:00,
2013-08-11 01:22:00,64.6,64.0,30.10,SSW,197,0.0,0.0,98,0.00,,,0.00,meteohub,2013-08-11 05:22:00,
2013-08-11 01:27:00,64.6,64.0,30.10,SSW,197,0.0,0.0,98,0.01,,,0.01,meteohub,2013-08-11 05:27:00,
2013-08-11 01:32:00,64.6,64.0,30.10,SSW,197,0.0,0.0,98,0.01,,,0.01,meteohub,2013-08-11 05:32:00,
2013-08-11 01:37:00,64.4,63.9,30.10,SSW,198,0.0,0.0,98,0.01,,,0.01,meteohub,2013-08-11 05:37:00,
2013-08-11 01:42:00,64.8,64.2,30.10,SSW,197,0.0,0.0,98,0.01,,,0.01,meteohub,2013-08-11 05:42:00,
2013-08-11 01:47:00,64.8,64.2,30.10,SSW,197,0.0,0.0,98,0.01,,,0.01,meteohub,2013-08-11 05:47:00,
2013-08-11 01:52:00,64.8,64.2,30.10,SSW,198,0.0,0.0,98,0.01,,,0.01,meteohub,2013-08-11 05:52:00,
2013-08-11 01:57:00,64.6,64.0,30.10,SSW,198,0.0,0.0,98,0.01,,,0.01,meteohub,2013-08-11 05:57:00,
2013-08-11 02:02:00,64.6,64.0,30.10,SSW,198,0.0,0.0,98,0.01,,,0.01,meteohub,2013-08-11 06:02:00,
2013-08-11 02:08:00,64.6,64.0,30.10,SSW,197,0.0,0.0,98,0.01,,,0.01,meteohub,2013-08-11 06:08:00,
2013-08-11 02:13:00,64.6,64.0,30.10,SSW,197,0.0,0.0,98,0.01,,,0.01,meteohub,2013-08-11 06:13:00,
2013-08-11 02:18:00,64.9,64.4,30.10,SSW,197,0.0,0.0,98,0.01,,,0.01,meteohub,2013-08-11 06:18:00,
2013-08-11 02:24:00,64.9,64.4,30.10,SSW,197,0.0,0.0,98,0.00,,,0.01,meteohub,2013-08-11 06:24:00,
2013-08-11 02:29:00,64.8,64.2,30.09,SSW,198,0.0,0.0,98,0.00,,,0.01,meteohub,2013-08-11 06:29:00,
2013-08-11 02:34:00,64.6,64.0,30.09,SSW,197,0.0,0.0,98,0.00,,,0.01,meteohub,2013-08-11 06:34:00,
2013-08-11 02:39:00,64.6,64.0,30.09,ENE,74,0.0,0.0,98,0.00,,,0.01,meteohub,2013-08-11 06:39:00,
2013-08-11 02:44:00,64.6,64.0,30.09,East,83,0.0,0.0,98,0.00,,,0.01,meteohub,2013-08-11 06:44:00,
2013-08-11 02:49:00,64.6,64.0,30.09,East,84,0.0,0.0,98,0.00,,,0.01,meteohub,2013-08-11 06:49:00,
2013-08-11 02:54:00,64.6,64.0,30.10,East,84,0.0,0.0,98,0.00,,,0.01,meteohub,2013-08-11 06:54:00,
2013-08-11 02:59:00,64.4,63.9,30.09,East,84,0.0,0.0,98,0.00,,,0.01,meteohub,2013-08-11 06:59:00,
2013-08-11 03:05:00,64.2,63.7,30.09,East,84,0.0,0.0,98,0.00,,,0.01,meteohub,2013-08-11 07:05:00,
2013-08-11 03:10:00,64.2,63.7,30.09,East,84,0.0,0.0,98,0.00,,,0.01,meteohub,2013-08-11 07:10:00,
2013-08-11 03:15:00,64.6,64.0,30.10,East,84,0.0,0.0,98,0.00,,,0.01,meteohub,2013-08-11 07:15:00,
2013-08-11 03:21:00,64.4,63.9,30.10,East,84,0.0,0.0,98,0.00,,,0.01,meteohub,2013-08-11 07:21:00,
2013-08-11 03:26:00,64.6,64.0,30.09,East,83,0.0,0.0,98,0.00,,,0.01,meteohub,2013-08-11 07:26:00,
2013-08-11 03:31:00,64.8,64.2,30.09,East,84,0.0,0.0,98,0.00,,,0.01,meteohub,2013-08-11 07:31:00,
2013-08-11 03:36:00,64.9,64.4,30.09,East,84,0.0,0.0,98,0.00,,,0.01,meteohub,2013-08-11 07:36:00,
2013-08-11 03:41:00,64.9,64.4,30.10,East,83,0.0,0.0,98,0.00,,,0.01,meteohub,2013-08-11 07:41:00,
2013-08-11 03:46:00,64.9,64.4,30.09,East,83,0.0,0.0,98,0.00,,,0.01,meteohub,2013-08-11 07:46:00,
2013-08-11 03:52:00,64.9,64.4,30.10,East,84,0.0,0.0,98,0.00,,,0.01,meteohub,2013-08-11 07:52:00,
2013-08-11 03:57:00,64.9,64.4,30.09,East,84,0.0,0.0,98,0.00,,,0.01,meteohub,2013-08-11 07:57:00,
2013-08-11 04:02:00,64.9,64.4,30.10,East,84,0.0,0.0,98,0.00,,,0.01,meteohub,2013-08-11 08:02:00,
2013-08-11 04:07:00,64.9,64.4,30.10,East,83,0.0,0.0,98,0.00,,,0.01,meteohub,2013-08-11 08:07:00,
2013-08-11 04:12:00,64.9,64.4,30.10,East,83,0.0,0.0,98,0.00,,,0.01,meteohub,2013-08-11 08:12:00,
2013-08-11 04:17:00,64.9,64.4,30.10,East,83,0.0,0.0,98,0.00,,,0.01,meteohub,2013-08-11 08:17:00,
2013-08-11 04:22:00,64.8,64.2,30.10,East,83,0.0,0.0,98,0.00,,,0.01,meteohub,2013-08-11 08:22:00,
2013-08-11 04:27:00,64.8,64.2,30.10,East,84,0.0,0.0,98,0.00,,,0.01,meteohub,2013-08-11 08:27:00,
2013-08-11 04:32:00,64.8,64.2,30.10,East,84,0.0,0.0,98,0.00,,,0.01,meteohub,2013-08-11 08:32:00,
2013-08-11 04:37:00,64.9,64.4,30.10,East,84,0.0,0.0,98,0.00,,,0.01,meteohub,2013-08-11 08:37:00,
2013-08-11 04:42:00,64.9,64.4,30.10,East,83,0.0,0.0,98,0.00,,,0.01,meteohub,2013-08-11 08:42:00,
2013-08-11 04:47:00,64.8,64.2,30.10,East,84,0.0,0.0,98,0.00,,,0.01,meteohub,2013-08-11 08:47:00,
2013-08-11 04:52:00,64.8,64.2,30.10,East,84,0.0,0.0,98,0.00,,,0.01,meteohub,2013-08-11 08:52:00,
2013-08-11 04:57:00,64.8,64.2,30.10,East,84,0.0,0.0,98,0.00,,,0.01,meteohub,2013-08-11 08:57:00,
2013-08-11 05:03:00,64.9,64.4,30.10,East,83,0.0,0.0,98,0.00,,,0.01,meteohub,2013-08-11 09:03:00,
2013-08-11 05:08:00,64.9,64.4,30.11,East,82,0.0,0.0,98,0.00,,,0.01,meteohub,2013-08-11 09:08:00,
2013-08-11 05:13:00,64.9,64.4,30.11,East,82,0.0,0.0,98,0.00,,,0.01,meteohub,2013-08-11 09:13:00,
2013-08-11 05:18:00,64.9,64.4,30.11,East,82,0.0,0.0,98,0.00,,,0.01,meteohub,2013-08-11 09:18:00,
2013-08-11 05:23:00,64.9,64.4,30.11,East,83,0.0,0.0,98,0.00,,,0.01,meteohub,2013-08-11 09:23:00,
2013-08-11 05:28:00,65.1,64.6,30.11,East,85,0.0,0.0,98,0.00,,,0.01,meteohub,2013-08-11 09:28:00,
2013-08-11 05:34:00,65.3,64.8,30.10,East,84,0.0,0.0,98,0.00,,,0.01,meteohub,2013-08-11 09:34:00,
2013-08-11 05:39:00,65.1,64.6,30.11,East,85,0.0,0.0,98,0.00,,,0.01,meteohub,2013-08-11 09:39:00,
2013-08-11 05:44:00,65.1,64.6,30.11,East,84,0.0,0.0,98,0.00,,,0.01,meteohub,2013-08-11 09:44:00,
2013-08-11 05:49:00,65.1,64.6,30.11,East,84,0.0,0.0,98,0.00,,,0.01,meteohub,2013-08-11 09:49:00,
2013-08-11 05:54:00,65.1,64.6,30.11,East,84,0.0,0.0,98,0.00,,,0.01,meteohub,2013-08-11 09:54:00,
2013-08-11 06:00:00,65.1,64.6,30.11,ESE,104,0.0,0.0,98,0.00,,,0.01,meteohub,2013-08-11 10:00:00,
2013-08-11 06:05:00,65.1,64.6,30.12,ESE,105,0.0,0.0,98,0.00,,,0.01,meteohub,2013-08-11 10:05:00,
2013-08-11 06:10:00,65.1,64.6,30.12,ESE,104,0.0,0.0,98,0.00,,,0.01,meteohub,2013-08-11 10:10:00,
2013-08-11 06:15:00,65.1,64.6,30.11,ESE,104,0.0,0.0,98,0.00,,,0.01,meteohub,2013-08-11 10:15:00,
2013-08-11 06:20:00,65.1,64.6,30.11,ESE,104,0.0,0.0,98,0.00,,,0.01,meteohub,2013-08-11 10:20:00,
2013-08-11 06:25:00,64.9,64.4,30.11,ESE,105,0.0,0.0,98,0.00,,,0.01,meteohub,2013-08-11 10:25:00,
2013-08-11 06:31:00,64.9,64.4,30.11,ESE,104,0.0,0.0,98,0.00,,,0.01,meteohub,2013-08-11 10:31:00,
2013-08-11 06:36:00,64.8,64.2,30.12,ESE,105,0.0,0.0,98,0.00,,,0.01,meteohub,2013-08-11 10:36:00,
2013-08-11 06:42:00,64.8,64.2,30.11,ESE,104,0.0,0.0,98,0.00,,,0.01,meteohub,2013-08-11 10:42:00,
2013-08-11 06:47:00,64.8,64.2,30.12,ESE,104,0.0,0.0,98,0.00,,,0.01,meteohub,2013-08-11 10:47:00,
2013-08-11 06:53:00,64.8,64.2,30.12,ESE,104,0.0,0.0,98,0.00,,,0.01,meteohub,2013-08-11 10:53:00,
2013-08-11 06:58:00,64.6,64.0,30.12,ESE,104,0.0,0.0,98,0.00,,,0.01,meteohub,2013-08-11 10:58:00,
2013-08-11 07:03:00,64.8,64.2,30.12,ESE,104,0.0,0.0,98,0.00,,,0.01,meteohub,2013-08-11 11:03:00,
2013-08-11 07:08:00,64.9,64.4,30.12,ESE,104,0.0,0.0,98,0.00,,,0.01,meteohub,2013-08-11 11:08:00,
2013-08-11 07:13:00,64.9,64.4,30.12,ESE,105,0.0,0.0,98,0.00,,,0.01,meteohub,2013-08-11 11:13:00,
2013-08-11 07:18:00,64.9,64.4,30.12,ESE,105,0.0,0.0,98,0.00,,,0.01,meteohub,2013-08-11 11:18:00,
2013-08-11 07:24:00,64.9,64.4,30.12,ESE,104,0.0,0.0,98,0.00,,,0.01,meteohub,2013-08-11 11:24:00,
2013-08-11 07:29:00,65.1,64.8,30.12,ESE,104,0.0,0.0,99,0.00,,,0.01,meteohub,2013-08-11 11:29:00,
2013-08-11 07:34:00,65.5,65.1,30.12,ESE,105,0.0,0.0,99,0.00,,,0.01,meteohub,2013-08-11 11:34:00,
2013-08-11 07:39:00,66.0,65.7,30.12,ESE,104,0.0,0.0,99,0.00,,,0.01,meteohub,2013-08-11 11:39:00,
2013-08-11 07:44:00,66.6,66.2,30.12,ESE,104,0.0,0.0,99,0.00,,,0.01,meteohub,2013-08-11 11:44:00,
2013-08-11 07:50:00,66.6,66.2,30.12,ESE,105,0.0,0.0,99,0.00,,,0.01,meteohub,2013-08-11 11:50:00,
2013-08-11 07:55:00,66.6,66.2,30.12,ESE,104,0.0,0.0,99,0.00,,,0.01,meteohub,2013-08-11 11:55:00,
2013-08-11 08:00:00,66.7,66.4,30.12,ESE,104,0.0,0.0,99,0.00,,,0.01,meteohub,2013-08-11 12:00:00,
2013-08-11 08:05:00,67.3,66.7,30.12,ESE,104,0.0,0.0,98,0.00,,,0.01,meteohub,2013-08-11 12:05:00,
2013-08-11 08:10:00,68.4,68.0,30.12,ESE,105,0.0,0.0,99,0.00,,,0.01,meteohub,2013-08-11 12:10:00,
2013-08-11 08:15:00,69.1,68.7,30.12,ESE,105,0.0,0.0,99,0.00,,,0.01,meteohub,2013-08-11 12:15:00,
2013-08-11 08:20:00,70.0,69.4,30.12,ESE,104,0.0,0.0,98,0.00,,,0.01,meteohub,2013-08-11 12:20:00,
2013-08-11 08:25:00,69.6,69.1,30.13,ESE,120,0.0,0.0,98,0.00,,,0.01,meteohub,2013-08-11 12:25:00,
2013-08-11 08:30:00,70.0,69.4,30.12,ESE,117,0.0,0.0,98,0.00,,,0.01,meteohub,2013-08-11 12:30:00,
2013-08-11 08:36:00,70.5,70.0,30.13,ESE,117,0.0,0.0,98,0.00,,,0.01,meteohub,2013-08-11 12:36:00,
2013-08-11 08:41:00,70.9,70.0,30.12,ESE,117,0.0,0.0,97,0.00,,,0.01,meteohub,2013-08-11 12:41:00,
2013-08-11 08:46:00,71.2,70.3,30.12,SE,126,0.0,0.0,97,0.00,,,0.01,meteohub,2013-08-11 12:46:00,
2013-08-11 08:51:00,71.6,70.7,30.13,SE,124,0.0,0.0,97,0.00,,,0.01,meteohub,2013-08-11 12:51:00,
2013-08-11 08:56:00,72.7,71.8,30.13,SE,124,0.0,0.0,97,0.00,,,0.01,meteohub,2013-08-11 12:56:00,
2013-08-11 09:01:00,73.0,71.2,30.13,ESE,117,0.0,0.0,94,0.00,,,0.01,meteohub,2013-08-11 13:01:00,
2013-08-11 09:06:00,73.4,70.9,30.13,NNE,13,0.0,0.0,92,0.00,,,0.01,meteohub,2013-08-11 13:06:00,
2013-08-11 09:11:00,73.9,69.8,30.13,North,0,0.0,0.0,87,0.00,,,0.01,meteohub,2013-08-11 13:11:00,
2013-08-11 09:17:00,74.1,70.0,30.14,North,1,0.0,0.0,87,0.00,,,0.01,meteohub,2013-08-11 13:17:00,
2013-08-11 09:22:00,74.5,69.6,30.13,North,4,0.0,0.0,85,0.00,,,0.01,meteohub,2013-08-11 13:22:00,
2013-08-11 09:27:00,74.8,69.3,30.14,West,275,0.0,0.0,83,0.00,,,0.01,meteohub,2013-08-11 13:27:00,
2013-08-11 09:32:00,75.0,69.4,30.14,West,274,0.0,0.0,83,0.00,,,0.01,meteohub,2013-08-11 13:32:00,
2013-08-11 09:37:00,75.4,69.4,30.14,West,275,0.0,0.0,82,0.00,,,0.01,meteohub,2013-08-11 13:37:00,
2013-08-11 09:42:00,75.9,70.0,30.14,WNW,297,0.0,0.0,82,0.00,,,0.01,meteohub,2013-08-11 13:42:00,
2013-08-11 09:48:00,76.5,70.2,30.13,WNW,297,0.0,0.0,81,0.00,,,0.01,meteohub,2013-08-11 13:48:00,
2013-08-11 09:53:00,76.8,70.2,30.14,WNW,288,0.0,0.0,80,0.00,,,0.01,meteohub,2013-08-11 13:53:00,
2013-08-11 09:59:00,77.5,70.5,30.13,West,267,0.0,0.0,79,0.00,,,0.01,meteohub,2013-08-11 13:59:00,
2013-08-11 10:04:00,78.1,70.0,30.13,WSW,250,0.0,0.0,76,0.00,,,0.01,meteohub,2013-08-11 14:04:00,
2013-08-11 10:09:00,77.9,69.8,30.13,West,267,0.0,0.0,76,0.00,,,0.01,meteohub,2013-08-11 14:09:00,
2013-08-11 10:15:00,77.7,69.6,30.14,West,271,0.0,0.0,76,0.00,,,0.01,meteohub,2013-08-11 14:15:00,
2013-08-11 10:20:00,77.5,69.8,30.13,WSW,243,0.0,0.0,77,0.00,,,0.01,meteohub,2013-08-11 14:20:00,
2013-08-11 10:25:00,77.4,70.0,30.13,West,280,0.0,0.0,78,0.00,,,0.01,meteohub,2013-08-11 14:25:00,
2013-08-11 10:30:00,77.5,69.8,30.13,West,266,0.0,0.0,77,0.00,,,0.01,meteohub,2013-08-11 14:30:00,
2013-08-11 10:35:00,78.4,69.4,30.14,WNW,290,0.0,0.0,74,0.00,,,0.01,meteohub,2013-08-11 14:35:00,
2013-08-11 10:40:00,78.3,69.6,30.14,WNW,288,0.0,0.0,75,0.00,,,0.01,meteohub,2013-08-11 14:40:00,
2013-08-11 10:45:00,78.4,69.8,30.14,WNW,290,0.0,0.0,75,0.00,,,0.01,meteohub,2013-08-11 14:45:00,
2013-08-11 10:51:00,79.0,70.0,30.14,SW,217,0.0,0.0,74,0.00,,,0.01,meteohub,2013-08-11 14:51:00,
2013-08-11 10:56:00,78.6,70.9,30.14,NNE,26,1.0,4.0,77,0.00,,,0.01,meteohub,2013-08-11 14:56:00,
2013-08-11 11:01:00,78.3,69.6,30.14,NW,305,0.0,4.0,75,0.00,,,0.01,meteohub,2013-08-11 15:01:00,
2013-08-11 11:07:00,78.6,70.9,30.13,West,262,0.0,4.0,77,0.00,,,0.01,meteohub,2013-08-11 15:07:00,
2013-08-11 11:12:00,79.3,70.3,30.13,WNW,283,0.0,2.0,74,0.00,,,0.01,meteohub,2013-08-11 15:12:00,
2013-08-11 11:17:00,79.7,71.1,30.12,NW,323,0.0,3.0,75,0.00,,,0.01,meteohub,2013-08-11 15:17:00,
2013-08-11 11:23:00,80.2,71.2,30.12,SW,225,0.0,3.0,74,0.00,,,0.01,meteohub,2013-08-11 15:23:00,
2013-08-11 11:28:00,81.0,71.4,30.12,WSW,255,1.0,3.0,73,0.00,,,0.01,meteohub,2013-08-11 15:28:00,
2013-08-11 11:33:00,81.0,70.2,30.12,SSW,200,0.0,4.0,70,0.00,,,0.01,meteohub,2013-08-11 15:33:00,
2013-08-11 11:38:00,81.0,71.4,30.12,NE,38,1.0,4.0,73,0.00,,,0.01,meteohub,2013-08-11 15:38:00,
2013-08-11 11:43:00,80.4,69.3,30.12,NW,307,0.0,4.0,69,0.00,,,0.01,meteohub,2013-08-11 15:43:00,
2013-08-11 11:48:00,80.1,69.8,30.12,NE,51,0.0,3.0,71,0.00,,,0.01,meteohub,2013-08-11 15:48:00,
2013-08-11 11:53:00,80.4,70.2,30.12,West,269,0.0,5.0,71,0.00,,,0.01,meteohub,2013-08-11 15:53:00,
2013-08-11 11:58:00,80.8,69.6,30.12,WNW,285,0.0,5.0,69,0.00,,,0.01,meteohub,2013-08-11 15:58:00,
2013-08-11 12:04:00,80.8,69.6,30.12,WNW,297,0.0,5.0,69,0.00,,,0.01,meteohub,2013-08-11 16:04:00,
2013-08-11 12:09:00,80.8,69.6,30.12,SSW,212,0.0,2.0,69,0.00,,,0.01,meteohub,2013-08-11 16:09:00,
2013-08-11 12:14:00,81.0,69.4,30.12,WSW,253,0.0,3.0,68,0.00,,,0.01,meteohub,2013-08-11 16:14:00,
2013-08-11 12:19:00,81.1,69.1,30.12,WSW,243,0.0,3.0,67,0.00,,,0.01,meteohub,2013-08-11 16:19:00,
2013-08-11 12:25:00,81.1,69.1,30.12,WSW,255,0.0,3.0,67,0.00,,,0.01,meteohub,2013-08-11 16:25:00,
2013-08-11 12:30:00,81.3,68.4,30.12,WSW,255,0.0,2.0,65,0.00,,,0.01,meteohub,2013-08-11 16:30:00,
2013-08-11 12:35:00,81.3,68.9,30.12,West,281,1.0,0.0,66,0.00,,,0.01,meteohub,2013-08-11 16:35:00,
2013-08-11 12:40:00,81.5,69.4,30.12,SW,224,0.0,4.0,67,0.00,,,0.01,meteohub,2013-08-11 16:40:00,
2013-08-11 12:46:00,81.9,68.9,30.12,SSW,213,0.0,4.0,65,0.00,,,0.01,meteohub,2013-08-11 16:46:00,
2013-08-11 12:51:00,81.7,69.3,30.12,West,281,0.0,3.0,66,0.00,,,0.01,meteohub,2013-08-11 16:51:00,
2013-08-11 12:56:00,80.4,68.5,30.12,SW,232,0.0,6.0,67,0.00,,,0.01,meteohub,2013-08-11 16:56:00,
2013-08-11 13:01:00,80.2,69.1,30.12,WSW,252,0.0,6.0,69,0.00,,,0.01,meteohub,2013-08-11 17:01:00,
2013-08-11 13:06:00,81.0,70.2,30.12,WSW,255,1.0,6.0,70,0.00,,,0.01,meteohub,2013-08-11 17:06:00,
2013-08-11 13:11:00,80.8,69.6,30.12,SW,219,2.0,2.0,69,0.00,,,0.01,meteohub,2013-08-11 17:11:00,
2013-08-11 13:16:00,78.6,69.6,30.11,SW,223,0.0,3.0,74,0.01,,,0.02,meteohub,2013-08-11 17:16:00,
2013-08-11 13:21:00,76.8,69.8,30.11,SSW,205,0.0,3.0,79,0.02,,,0.03,meteohub,2013-08-11 17:21:00,
2013-08-11 13:26:00,75.9,70.3,30.11,SSW,205,0.0,3.0,83,0.02,,,0.03,meteohub,2013-08-11 17:26:00,
2013-08-11 13:32:00,76.3,71.1,30.11,NNW,333,0.0,2.0,84,0.02,,,0.03,meteohub,2013-08-11 17:32:00,
2013-08-11 13:37:00,77.0,72.1,30.10,WNW,290,0.0,2.0,85,0.02,,,0.03,meteohub,2013-08-11 17:37:00,
2013-08-11 13:42:00,77.9,72.0,30.09,West,274,0.0,3.0,82,0.02,,,0.03,meteohub,2013-08-11 17:42:00,
2013-08-11 13:47:00,78.1,71.1,30.09,South,190,3.0,3.0,79,0.02,,,0.03,meteohub,2013-08-11 17:47:00,
2013-08-11 13:52:00,77.5,71.2,30.09,SW,221,0.0,4.0,81,0.02,,,0.03,meteohub,2013-08-11 17:52:00,
2013-08-11 13:57:00,77.2,71.6,30.09,SW,226,0.0,4.0,83,0.02,,,0.03,meteohub,2013-08-11 17:57:00,
2013-08-11 14:02:00,77.0,71.4,30.10,SSE,151,0.0,4.0,83,0.02,,,0.03,meteohub,2013-08-11 18:02:00,
2013-08-11 14:07:00,76.8,71.6,30.10,West,259,0.0,1.0,84,0.02,,,0.03,meteohub,2013-08-11 18:07:00,
2013-08-11 14:12:00,76.5,71.6,30.10,SSW,208,0.0,1.0,85,0.02,,,0.03,meteohub,2013-08-11 18:12:00,
2013-08-11 14:17:00,76.3,71.4,30.09,SW,231,0.0,1.0,85,0.00,,,0.03,meteohub,2013-08-11 18:17:00,
2013-08-11 14:22:00,75.9,71.4,30.10,West,281,0.0,1.0,86,0.00,,,0.03,meteohub,2013-08-11 18:22:00,
2013-08-11 14:27:00,75.7,71.2,30.09,SE,131,0.0,1.0,86,0.00,,,0.03,meteohub,2013-08-11 18:27:00,
2013-08-11 14:32:00,75.6,71.4,30.09,SE,136,0.0,1.0,87,0.00,,,0.03,meteohub,2013-08-11 18:32:00,
2013-08-11 14:37:00,75.4,71.6,30.09,SE,137,0.0,1.0,88,0.00,,,0.03,meteohub,2013-08-11 18:37:00,
2013-08-11 14:42:00,75.2,71.4,30.09,SW,217,0.0,1.0,88,0.00,,,0.03,meteohub,2013-08-11 18:42:00,
2013-08-11 14:48:00,75.2,71.8,30.09,SW,236,0.0,1.0,89,0.00,,,0.03,meteohub,2013-08-11 18:48:00,
2013-08-11 14:54:00,75.4,72.3,30.09,NW,311,0.0,1.0,90,0.00,,,0.03,meteohub,2013-08-11 18:54:00,
2013-08-11 14:59:00,75.6,72.1,30.09,NW,304,0.0,1.0,89,0.00,,,0.03,meteohub,2013-08-11 18:59:00,
2013-08-11 15:04:00,75.4,71.2,30.09,NNW,328,0.0,1.0,87,0.00,,,0.03,meteohub,2013-08-11 19:04:00,
2013-08-11 15:09:00,75.0,70.5,30.09,WNW,290,0.0,1.0,86,0.00,,,0.03,meteohub,2013-08-11 19:09:00,
2013-08-11 15:15:00,74.5,70.3,30.09,WSW,256,0.0,2.0,87,0.00,,,0.03,meteohub,2013-08-11 19:15:00,
2013-08-11 15:20:00,74.1,70.0,30.09,WSW,256,0.0,3.0,87,0.00,,,0.03,meteohub,2013-08-11 19:20:00,
2013-08-11 15:25:00,73.6,69.4,30.08,SE,145,0.0,3.0,87,0.00,,,0.03,meteohub,2013-08-11 19:25:00,
2013-08-11 15:30:00,73.2,69.4,30.08,North,350,0.0,3.0,88,0.00,,,0.03,meteohub,2013-08-11 19:30:00,
2013-08-11 15:35:00,73.0,69.6,30.08,NNE,24,0.0,3.0,89,0.00,,,0.03,meteohub,2013-08-11 19:35:00,
2013-08-11 15:41:00,73.0,70.0,30.08,SW,217,0.0,1.0,90,0.00,,,0.03,meteohub,2013-08-11 19:41:00,
2013-08-11 15:46:00,73.8,70.7,30.08,ENE,65,0.0,1.0,90,0.00,,,0.03,meteohub,2013-08-11 19:46:00,
2013-08-11 15:51:00,74.7,69.8,30.07,ESE,120,3.0,3.0,85,0.00,,,0.03,meteohub,2013-08-11 19:51:00,
2013-08-11 15:56:00,75.4,69.4,30.07,West,281,0.0,4.0,82,0.00,,,0.03,meteohub,2013-08-11 19:56:00,
2013-08-11 16:01:00,75.7,69.8,30.08,West,266,1.0,5.0,82,0.00,,,0.03,meteohub,2013-08-11 20:01:00,
2013-08-11 16:07:00,75.6,69.3,30.08,ENE,64,0.0,5.0,81,0.00,,,0.03,meteohub,2013-08-11 20:07:00,
2013-08-11 16:12:00,75.6,69.6,30.07,NNW,347,0.0,2.0,82,0.00,,,0.03,meteohub,2013-08-11 20:12:00,
2013-08-11 16:17:00,75.0,69.4,30.08,North,349,0.0,2.0,83,0.00,,,0.03,meteohub,2013-08-11 20:17:00,
2013-08-11 16:22:00,74.7,69.4,30.08,NNW,341,0.0,1.0,84,0.00,,,0.03,meteohub,2013-08-11 20:22:00,
2013-08-11 16:27:00,74.1,69.3,30.08,NW,322,0.0,0.0,85,0.00,,,0.03,meteohub,2013-08-11 20:27:00,
2013-08-11 16:32:00,73.8,69.3,30.08,West,278,0.0,1.0,86,0.00,,,0.03,meteohub,2013-08-11 20:32:00,
2013-08-11 16:38:00,73.4,69.3,30.08,North,6,0.0,1.0,87,0.00,,,0.03,meteohub,2013-08-11 20:38:00,
2013-08-11 16:43:00,72.9,69.1,30.08,NNE,33,2.0,2.0,88,0.00,,,0.03,meteohub,2013-08-11 20:43:00,
2013-08-11 16:48:00,72.7,69.3,30.08,NE,47,0.0,5.0,89,0.00,,,0.03,meteohub,2013-08-11 20:48:00,
2013-08-11 16:53:00,72.3,69.3,30.07,NE,48,0.0,5.0,90,0.00,,,0.03,meteohub,2013-08-11 20:53:00,
2013-08-11 16:58:00,72.3,69.3,30.07,East,81,0.0,4.0,90,0.00,,,0.03,meteohub,2013-08-11 20:58:00,
2013-08-11 17:03:00,72.5,69.8,30.08,East,80,0.0,1.0,91,0.00,,,0.03,meteohub,2013-08-11 21:03:00,
2013-08-11 17:09:00,72.7,70.0,30.08,East,81,0.0,1.0,91,0.00,,,0.03,meteohub,2013-08-11 21:09:00,
2013-08-11 17:14:00,72.9,70.2,30.07,NE,53,0.0,0.0,91,0.00,,,0.03,meteohub,2013-08-11 21:14:00,
2013-08-11 17:19:00,73.6,70.2,30.07,North,356,0.0,1.0,89,0.00,,,0.03,meteohub,2013-08-11 21:19:00,
2013-08-11 17:24:00,74.5,70.7,30.07,South,169,1.0,2.0,88,0.00,,,0.03,meteohub,2013-08-11 21:24:00,
2013-08-11 17:29:00,74.8,69.6,30.07,ESE,103,0.0,2.0,84,0.00,,,0.03,meteohub,2013-08-11 21:29:00,
2013-08-11 17:34:00,75.4,70.2,30.06,ESE,103,0.0,3.0,84,0.00,,,0.03,meteohub,2013-08-11 21:34:00,
2013-08-11 17:39:00,75.7,69.4,30.06,SSW,211,0.0,3.0,81,0.00,,,0.03,meteohub,2013-08-11 21:39:00,
2013-08-11 17:45:00,75.9,69.6,30.06,West,274,0.0,3.0,81,0.00,,,0.03,meteohub,2013-08-11 21:45:00,
2013-08-11 17:50:00,75.9,70.0,30.06,West,259,0.0,1.0,82,0.00,,,0.03,meteohub,2013-08-11 21:50:00,
2013-08-11 17:55:00,75.7,69.4,30.06,SSW,202,0.0,1.0,81,0.00,,,0.03,meteohub,2013-08-11 21:55:00,
2013-08-11 18:00:00,75.6,70.3,30.07,SSW,201,0.0,1.0,84,0.00,,,0.03,meteohub,2013-08-11 22:00:00,
2013-08-11 18:05:00,75.0,69.8,30.06,SSW,202,0.0,1.0,84,0.00,,,0.03,meteohub,2013-08-11 22:05:00,
2013-08-11 18:11:00,74.7,69.8,30.06,West,267,0.0,0.0,85,0.00,,,0.03,meteohub,2013-08-11 22:11:00,
2013-08-11 18:16:00,74.3,69.8,30.06,West,267,0.0,0.0,86,0.00,,,0.03,meteohub,2013-08-11 22:16:00,
2013-08-11 18:21:00,74.1,70.0,30.07,West,267,0.0,0.0,87,0.00,,,0.03,meteohub,2013-08-11 22:21:00,
2013-08-11 18:26:00,73.8,69.6,30.07,WNW,296,0.0,0.0,87,0.00,,,0.03,meteohub,2013-08-11 22:26:00,
2013-08-11 18:31:00,73.6,70.2,30.06,NNE,20,0.0,1.0,89,0.00,,,0.03,meteohub,2013-08-11 22:31:00,
2013-08-11 18:36:00,73.6,70.5,30.06,NNE,20,0.0,1.0,90,0.00,,,0.03,meteohub,2013-08-11 22:36:00,
2013-08-11 18:41:00,73.2,69.8,30.07,SSW,207,0.0,1.0,89,0.00,,,0.03,meteohub,2013-08-11 22:41:00,
2013-08-11 18:46:00,73.2,69.8,30.07,SW,215,0.0,0.0,89,0.00,,,0.03,meteohub,2013-08-11 22:46:00,
2013-08-11 18:51:00,73.4,70.0,30.06,SW,217,0.0,0.0,89,0.00,,,0.03,meteohub,2013-08-11 22:51:00,
2013-08-11 18:57:00,73.8,70.0,30.07,WNW,290,0.0,0.0,88,0.00,,,0.03,meteohub,2013-08-11 22:57:00,
2013-08-11 19:02:00,73.9,69.8,30.07,WNW,297,0.0,0.0,87,0.00,,,0.03,meteohub,2013-08-11 23:02:00,
2013-08-11 19:07:00,73.9,69.4,30.07,WNW,297,0.0,0.0,86,0.00,,,0.03,meteohub,2013-08-11 23:07:00,
2013-08-11 19:12:00,73.9,69.4,30.07,WNW,297,0.0,0.0,86,0.00,,,0.03,meteohub,2013-08-11 23:12:00,
2013-08-11 19:17:00,73.6,69.1,30.07,WNW,297,0.0,0.0,86,0.00,,,0.03,meteohub,2013-08-11 23:17:00,
2013-08-11 19:22:00,73.6,69.1,30.07,WNW,297,0.0,0.0,86,0.00,,,0.03,meteohub,2013-08-11 23:22:00,
2013-08-11 19:27:00,73.2,69.1,30.07,WNW,296,0.0,0.0,87,0.00,,,0.03,meteohub,2013-08-11 23:27:00,
2013-08-11 19:32:00,73.0,68.9,30.07,WNW,297,0.0,0.0,87,0.00,,,0.03,meteohub,2013-08-11 23:32:00,
2013-08-11 19:37:00,72.7,68.9,30.08,West,274,0.0,0.0,88,0.00,,,0.03,meteohub,2013-08-11 23:37:00,
2013-08-11 19:43:00,72.3,68.9,30.08,WNW,294,0.0,0.0,89,0.00,,,0.03,meteohub,2013-08-11 23:43:00,
2013-08-11 19:48:00,72.1,68.7,30.08,NNW,348,0.0,0.0,89,0.00,,,0.03,meteohub,2013-08-11 23:48:00,
2013-08-11 19:53:00,71.8,68.7,30.08,SW,231,0.0,0.0,90,0.00,,,0.03,meteohub,2013-08-11 23:53:00,
2013-08-11 19:58:00,71.6,68.5,30.08,SW,214,0.0,1.0,90,0.00,,,0.03,meteohub,2013-08-11 23:58:00,
2013-08-11 20:04:00,71.4,68.4,30.08,WSW,253,0.0,1.0,90,0.00,,,0.03,meteohub,2013-08-12 00:04:00,
2013-08-11 20:10:00,71.2,68.2,30.08,West,264,0.0,1.0,90,0.00,,,0.00,meteohub,2013-08-12 00:10:00,
2013-08-11 20:15:00,71.1,68.0,30.08,WSW,248,0.0,2.0,90,0.00,,,0.00,meteohub,2013-08-12 00:15:00,
2013-08-11 20:20:00,70.9,67.5,30.07,NE,56,0.0,2.0,89,0.00,,,0.00,meteohub,2013-08-12 00:20:00,
2013-08-11 20:25:00,70.5,67.1,30.07,WSW,253,0.0,2.0,89,0.00,,,0.00,meteohub,2013-08-12 00:25:00,
2013-08-11 20:31:00,70.3,66.9,30.06,SW,215,0.0,2.0,89,0.00,,,0.00,meteohub,2013-08-12 00:31:00,
2013-08-11 20:36:00,70.2,66.7,30.07,SW,226,0.0,1.0,89,0.00,,,0.00,meteohub,2013-08-12 00:36:00,
2013-08-11 20:41:00,70.0,66.6,30.07,SW,226,0.0,1.0,89,0.00,,,0.00,meteohub,2013-08-12 00:41:00,
2013-08-11 20:46:00,70.0,66.6,30.07,West,274,0.0,1.0,89,0.00,,,0.00,meteohub,2013-08-12 00:46:00,
2013-08-11 20:51:00,70.0,66.9,30.08,NW,305,0.0,2.0,90,0.00,,,0.00,meteohub,2013-08-12 00:51:00,
2013-08-11 20:57:00,69.8,66.4,30.08,NE,49,0.0,2.0,89,0.00,,,0.00,meteohub,2013-08-12 00:57:00,
2013-08-11 21:02:00,69.8,66.4,30.08,NE,52,0.0,2.0,89,0.00,,,0.00,meteohub,2013-08-12 01:02:00,
2013-08-11 21:07:00,69.6,65.8,30.08,NE,51,0.0,2.0,88,0.00,,,0.00,meteohub,2013-08-12 01:07:00,
2013-08-11 21:12:00,69.6,66.2,30.07,NE,51,0.0,0.0,89,0.00,,,0.00,meteohub,2013-08-12 01:12:00,
2013-08-11 21:17:00,69.4,66.0,30.07,East,101,0.0,0.0,89,0.00,,,0.00,meteohub,2013-08-12 01:17:00,
2013-08-11 21:22:00,69.3,65.8,30.07,ESE,102,0.0,1.0,89,0.00,,,0.00,meteohub,2013-08-12 01:22:00,
2013-08-11 21:27:00,69.1,66.0,30.07,ESE,102,0.0,1.0,90,0.00,,,0.00,meteohub,2013-08-12 01:27:00,
2013-08-11 21:33:00,68.5,65.8,30.07,South,173,0.0,1.0,91,0.00,,,0.00,meteohub,2013-08-12 01:33:00,
2013-08-11 21:38:00,68.4,65.7,30.08,South,173,0.0,0.0,91,0.00,,,0.00,meteohub,2013-08-12 01:38:00,
2013-08-11 21:43:00,68.4,66.0,30.09,South,173,0.0,0.0,92,0.00,,,0.00,meteohub,2013-08-12 01:43:00,
2013-08-11 21:48:00,68.4,66.0,30.09,South,173,0.0,0.0,92,0.00,,,0.00,meteohub,2013-08-12 01:48:00,
2013-08-11 21:53:00,68.2,66.0,30.09,SSW,203,0.0,0.0,93,0.00,,,0.00,meteohub,2013-08-12 01:53:00,
2013-08-11 21:58:00,68.0,65.8,30.09,SSW,203,0.0,0.0,93,0.00,,,0.00,meteohub,2013-08-12 01:58:00,
2013-08-11 22:03:00,68.4,66.2,30.10,SSW,204,0.0,0.0,93,0.00,,,0.00,meteohub,2013-08-12 02:03:00,
2013-08-11 22:08:00,68.5,66.4,30.09,SSW,212,0.0,0.0,93,0.00,,,0.00,meteohub,2013-08-12 02:08:00,
2013-08-11 22:13:00,68.7,66.4,30.10,WSW,237,0.0,1.0,92,0.00,,,0.00,meteohub,2013-08-12 02:13:00,
2013-08-11 22:18:00,69.3,66.9,30.10,SW,231,0.0,2.0,92,0.00,,,0.00,meteohub,2013-08-12 02:18:00,
2013-08-11 22:23:00,69.3,66.6,30.10,WSW,238,0.0,2.0,91,0.00,,,0.00,meteohub,2013-08-12 02:23:00,
2013-08-11 22:28:00,69.3,66.6,30.10,WSW,237,0.0,2.0,91,0.00,,,0.00,meteohub,2013-08-12 02:28:00,
2013-08-11 22:34:00,69.1,66.7,30.10,WSW,238,0.0,1.0,92,0.00,,,0.00,meteohub,2013-08-12 02:34:00,
2013-08-11 22:39:00,68.5,66.2,30.10,NE,46,0.0,0.0,92,0.00,,,0.00,meteohub,2013-08-12 02:39:00,
2013-08-11 22:44:00,68.2,66.0,30.10,NE,46,0.0,3.0,93,0.00,,,0.00,meteohub,2013-08-12 02:44:00,
2013-08-11 22:49:00,67.8,66.0,30.10,NE,51,0.0,3.0,94,0.00,,,0.00,meteohub,2013-08-12 02:49:00,
2013-08-11 22:54:00,67.6,65.8,30.10,NE,51,0.0,3.0,94,0.00,,,0.00,meteohub,2013-08-12 02:54:00,
2013-08-11 22:59:00,67.5,65.7,30.10,NE,51,0.0,0.0,94,0.00,,,0.00,meteohub,2013-08-12 02:59:00,
2013-08-11 23:04:00,67.3,65.8,30.10,NE,51,0.0,0.0,95,0.00,,,0.00,meteohub,2013-08-12 03:04:00,
2013-08-11 23:09:00,67.1,65.7,30.10,NE,51,0.0,0.0,95,0.00,,,0.00,meteohub,2013-08-12 03:09:00,
2013-08-11 23:15:00,66.9,65.5,30.10,NE,50,0.0,0.0,95,0.00,,,0.00,meteohub,2013-08-12 03:15:00,
2013-08-11 23:20:00,66.7,65.3,30.11,NE,47,0.0,0.0,95,0.00,,,0.00,meteohub,2013-08-12 03:20:00,
2013-08-11 23:25:00,66.4,64.9,30.11,NE,47,0.0,1.0,95,0.00,,,0.00,meteohub,2013-08-12 03:25:00,
2013-08-11 23:30:00,66.4,65.1,30.11,SE,146,0.0,1.0,96,0.00,,,0.00,meteohub,2013-08-12 03:30:00,
2013-08-11 23:35:00,66.4,65.1,30.11,SE,146,0.0,1.0,96,0.00,,,0.00,meteohub,2013-08-12 03:35:00,
2013-08-11 23:40:00,66.2,64.9,30.11,SE,145,0.0,0.0,96,0.00,,,0.00,meteohub,2013-08-12 03:40:00,
2013-08-11 23:45:00,66.0,64.8,30.11,SSE,167,0.0,1.0,96,0.00,,,0.00,meteohub,2013-08-12 03:45:00,
2013-08-11 23:51:00,66.2,65.3,30.11,SSE,167,0.0,1.0,97,0.00,,,0.00,meteohub,2013-08-12 03:51:00,
2013-08-11 23:56:00,66.2,65.3,30.10,SSE,167,0.0,1.0,97,0.00,,,0.00,meteohub,2013-08-12 03:56:00,